Location: Winthrop
(48.4780°N, 120.1850°W)
Time: 12:05:47
(UTC-07:00)

AO-85 - Visible Passes

Search period start: 16 May 2022 00:00
Search period end: 26 May 2022 00:00
Orbit: 497 x 778 km, 64.8° (Epoch: 04 May)

Date Brightness Start Highest point End Pass type
(mag) Time Alt. Az. Time Alt. Az. Time Alt. Az.
16 May ? 00:22:42 10° W 00:27:12 27° NNW 00:31:32 10° NNE visible
16 May ? 02:06:51 10° NW 02:09:12 13° N 02:11:31 10° NNE visible
16 May ? 03:49:00 10° NNW 03:51:38 14° NNE 03:54:11 10° NE visible
16 May ? 21:24:51 10° S 21:29:29 30° ESE 21:34:02 10° NE visible
16 May ? 23:04:20 10° SW 23:09:38 56° NW 23:14:44 10° NNE visible
17 May ? 00:47:19 10° WNW 00:51:00 19° NNW 00:54:35 10° NNE visible
17 May ? 02:31:22 10° NNW 02:33:18 12° N 02:35:12 10° NNE visible
17 May ? 04:12:09 10° NNW 04:15:35 19° NNE 04:18:50 10° ENE visible
17 May ? 21:47:15 10° SSW 21:52:31 58° ESE 21:57:39 10° NE visible
17 May ? 23:28:18 10° WSW 23:33:09 34° NW 23:37:50 10° NNE visible
18 May ? 01:12:09 10° NW 01:14:57 14° NNW 01:17:40 10° NNE visible
18 May ? 02:55:09 10° NNW 02:57:23 13° N 02:59:33 10° NE visible
18 May ? 04:35:14 10° NNW 04:39:22 27° NNE 04:43:12 10° E visible
18 May ? 22:10:21 10° SW 22:15:44 78° NW 22:20:57 10° NE visible
18 May ? 23:52:42 10° W 23:56:51 23° NNW 00:00:51 10° NNE visible
19 May ? 01:36:56 10° NNW 01:39:00 12° N 01:41:02 10° NNE visible
19 May ? 03:18:25 10° NNW 03:21:23 16° NNE 03:24:13 10° ENE visible
19 May ? 22:34:00 10° WSW 22:39:08 44° NW 22:44:05 10° NNE visible
20 May ? 00:17:25 10° WNW 00:20:42 16° NNW 00:23:53 10° NNE visible
20 May ? 02:01:07 10° NNW 02:03:04 12° N 02:04:59 10° NNE visible
20 May ? 03:41:30 10° NNW 03:45:14 21° NNE 03:48:45 10° E visible
20 May ? 21:16:29 10° SSW 21:21:52 76° SE 21:27:04 10° NE visible
20 May ? 22:58:09 10° W 23:02:42 28° NW 23:07:06 10° NNE visible
21 May ? 00:42:15 10° NW 00:44:40 13° NNW 00:47:01 10° NNE visible
21 May ? 02:24:35 10° NNW 02:27:06 14° NNE 02:29:31 10° NE visible
21 May ? 04:04:33 10° NNW 04:08:54 33° NE 04:12:55 10° ESE visible
21 May ? 21:39:50 10° SW 21:45:08 60° NW 21:50:16 10° NNE visible
21 May ? 23:22:41 10° WNW 23:26:27 19° NNW 23:30:06 10° NNE visible
22 May ? 01:06:48 10° NNW 01:08:43 12° N 01:10:34 10° NNE visible
22 May ? 02:47:43 10° NNW 02:51:01 18° NNE 02:54:08 10° ENE visible
22 May ? 04:27:39 10° NNW 04:32:22 59° NE 04:36:39 10° SE visible
22 May ? 22:03:41 10° WSW 22:08:36 36° NW 22:13:19 10° NNE visible
22 May ? 23:47:28 10° NW 23:50:20 15° NNW 23:53:08 10° NNE visible
23 May ? 01:30:38 10° NNW 01:32:45 12° N 01:34:48 10° NNE visible
23 May ? 03:10:45 10° NNW 03:14:46 25° NNE 03:18:31 10° E visible
23 May ? 22:27:59 10° W 22:32:13 24° NNW 22:36:18 10° NNE visible
24 May ? 00:12:14 10° NNW 00:14:19 12° N 00:16:22 10° NNE visible
24 May ? 01:53:52 10° NNW 01:56:43 15° NNE 01:59:26 10° NE visible
24 May ? 03:33:47 10° NNW 03:38:20 42° NE 03:42:29 10° ESE visible
24 May ? 22:52:38 10° WNW 22:56:00 17° NNW 22:59:16 10° NNE visible
25 May ? 00:36:28 10° NNW 00:38:21 12° N 00:40:11 10° NNE visible
25 May ? 02:16:55 10° NNW 02:20:33 20° NNE 02:23:57 10° ENE visible
25 May ? 03:56:55 10° NW 04:01:40 80° NE 04:05:57 10° SE visible
25 May ? 21:33:22 10° W 21:38:00 29° NW 21:42:28 10° NNE visible
25 May ? 23:17:26 10° NW 23:19:54 13° NNW 23:22:19 10° NNE visible
